Temp
23 22 22 22 22 22 21 20 20 20 19 19 18 17 17 17 17 17 17 17 17 18 16 15 16 16 16 16 15 15 15 16 16 16 16 16 16 16 15 16 16 16 15 15 15 15 16 17 17 17 17 17 17 16 17 16 16 16 16 16 16 16 16 16 16 16 16 16 16 15 15 15 15 15 15 15 15 15 14 14 14 14 14 14 14 14
23 22 23 23 23 23 21 19 19 19 18 18 18 18 17 17 17 17 17 17 17 17 16 15 16 16 16 16 15 15 15 16 16 16 16 16 16 16 16 16 16 15 15 14 14 15 16 16 16 17 17 17 17 16 17 16 16 16 16 16 16 16 16 16 16 16 16 16 16 15 15 15 15 15 15 15 15 14 14 14 14 14 14 14 14 14
22 22 24 23 21 20 20 19 20 19 18 18 18 18 18 17 17 17 17 18 17 17 16 16 16 16 16 16 15 15 16 16 16 16 16 16 16 16 16 16 16 15 15 15 14 14 15 16 16 17 17 17 17 16 16 16 16 16 16 16 16 16 16 16 16 16 16 16 16 16 15 15 15 15 15 15 14 14 14 14 14 14 14 14 14 13
22 23 24 22 20 20 19 19 20 19 18 18 18 19 18 17 17 18 17 17 17 17 16 16 17 17 17 16 16 16 16 17 17 16 16 16 16 16 16 16 16 16 16 15 15 14 15 15 16 16 17 17 17 16 16 16 16 16 16 16 16 16 16 16 16 16 16 16 16 16 15 15 15 15 15 15 14 14 14 14 14 14 14 14 14 14
23 23 22 20 21 21 20 20 20 20 19 18 18 19 19 17 17 17 17 17 17 17 17 18 17 17 17 17 17 16 16 16 17 16 16 16 16 16 16 16 16 16 16 16 15 14 14 15 16 16 17 16 16 16 16 16 16 16 16 16 16 16 16 16 16 16 16 16 16 16 15 15 15 15 15 15 15 14 14 14 14 14 14 14 14 14
24 23 21 21 21 21 21 20 20 21 20 18 19 19 19 18 17 17 17 18 17 17 18 18 18 18 17 17 17 17 16 16 17 17 17 17 16 16 16 16 15 15 15 15 15 14 14 15 15 16 16 16 17 17 16 16 16 17 16 16 16 16 16 16 16 16 16 16 16 16 16 15 15 15 15 15 14 14 14 14 14 14 14 14 14 14
24 22 22 22 21 20 21 20 20 21 20 19 20 19 18 18 17 17 17 18 18 17 17 17 18 18 17 17 18 17 17 17 16 17 17 17 16 16 16 16 15 15 15 15 15 14 13 14 15 15 16 17 17 17 16 17 17 17 17 16 16 16 16 16 16 16 16 16 16 16 16 15 15 15 15 15 15 14 14 14 14 14 14 14 14 14
24 22 21 22 21 20 21 21 20 20 21 20 20 19 18 18 17 17 18 18 17 17 17 17 17 18 18 18 17 17 17 17 17 17 17 16 16 16 16 16 16 16 15 15 15 14 13 14 15 15 16 17 17 17 17 17 17 17 17 16 16 16 16 16 16 16 16 16 16 16 15 15 15 15 15 15 15 15 14 14 14 14 14 14 14 14
24 24 22 22 21 21 21 21 20 21 21 19 18 18 18 18 17 18 18 18 17 17 18 17 17 18 19 18 16 16 17 17 17 17 17 16 16 16 16 16 16 16 15 15 15 15 14 14 15 16 17 17 17 17 17 17 17 17 17 17 17 16 16 16 16 16 16 16 16 16 16 15 15 15 15 15 15 15 15 14 14 15 15 15 15 15
24 24 23 22 22 22 21 20 20 22 21 19 18 19 18 18 18 18 19 18 18 18 19 18 17 18 19 18 16 16 17 17 18 18 17 17 16 16 16 16 16 16 15 15 15 15 14 15 16 16 17 17 17 17 17 17 17 17 17 17 17 17 16 16 16 16 16 16 16 16 16 16 15 15 15 15 15 15 15 15 15 15 15 15 15 15
24 23 23 23 23 22 21 20 20 21 20 19 19 19 19 19 19 19 18 19 19 19 19 18 17 18 19 19 17 17 18 19 18 18 17 17 17 16 16 16 16 16 16 16 15 15 15 15 15 16 16 17 17 17 17 17 17 17 17 17 17 17 17 17 16 16 16 16 16 16 16 16 16 16 16 16 16 15 15 15 15 15 15 15 15 16
24 24 24 24 22 21 21 20 20 20 20 20 20 19 19 19 19 19 19 19 19 19 19 17 16 17 19 20 19 18 19 19 19 19 18 18 17 16 16 16 16 16 16 16 15 15 14 14 15 15 16 17 17 17 17 17 17 17 17 17 17 17 17 17 17 16 16 16 16 16 16 16 16 16 16 16 16 16 15 15 15 15 15 16 16 16
25 25 23 23 23 22 21 20 20 20 20 20 20 20 20 19 19 20 19 18 19 19 18 16 17 18 18 20 20 19 19 19 19 19 18 18 17 17 16 16 16 16 16 16 16 15 14 14 14 15 15 16 17 17 17 17 17 17 17 17 17 17 17 17 17 17 17 16 16 16 16 16 16 16 16 16 16 16 16 16 16 16 16 16 16 16
23 24 24 24 24 23 22 21 20 20 20 20 20 20 20 19 19 19 18 18 18 19 17 16 18 19 19 20 21 20 21 20 19 19 19 18 18 17 17 16 16 16 16 16 16 15 14 13 14 15 15 16 17 17 17 17 17 17 17 17 17 17 17 17 17 17 17 17 16 16 16 16 16 16 16 16 16 16 16 16 16 16 16 16 16 15
21 22 24 24 24 23 23 22 21 21 20 20 20 20 20 20 20 20 20 19 19 18 17 17 18 19 20 21 20 20 19 19 18 18 18 18 18 17 17 16 16 16 16 16 16 15 14 14 15 15 16 17 18 18 17 17 17 17 17 17 17 17 17 17 17 17 17 17 17 16 16 16 16 16 16 16 16 16 16 16 16 16 16 16 15 15
20 21 24 24 22 24 24 22 22 21 20 20 20 20 20 21 21 19 18 18 18 18 18 18 18 19 20 20 19 18 18 18 18 18 18 18 17 17 17 16 16 16 16 16 16 15 14 14 15 15 16 17 18 18 18 18 18 17 17 17 17 17 17 17 17 17 17 17 17 17 17 16 16 16 16 16 16 16 16 16 16 16 16 15 15 15
20 22 24 23 22 23 23 22 22 22 21 20 20 21 20 20 21 20 17 17 17 19 19 18 19 20 20 21 20 19 19 18 18 18 18 18 17 17 17 17 16 16 16 16 16 15 14 14 15 15 16 17 18 18 18 18 18 18 18 18 18 18 18 17 17 17 17 17 17 17 17 17 17 17 17 17 17 16 16 16 16 16 16 15 15 15
21 22 23 24 24 23 22 23 23 22 22 21 21 21 21 20 21 21 19 19 18 19 19 18 19 20 20 21 20 20 20 19 18 18 18 17 17 17 17 17 17 17 17 17 16 15 14 14 15 16 16 17 18 18 18 18 18 18 18 18 18 18 18 18 17 17 17 17 17 17 17 17 17 17 17 17 17 17 16 16 16 16 15 15 14 14
21 22 23 23 23 23 23 24 23 22 22 22 22 22 21 20 21 20 20 20 19 19 19 18 18 19 19 21 21 22 22 20 18 17 17 17 17 17 17 17 17 17 17 16 16 15 14 14 15 16 16 17 18 18 18 18 18 18 18 18 18 18 18 18 18 17 17 17 17 17 17 17 17 17 17 17 17 17 16 16 16 15 15 14 14 14
21 21 22 23 23 23 24 23 22 22 22 22 22 22 21 21 21 20 20 20 20 20 19 19 19 20 21 21 22 23 23 21 18 18 18 17 17 17 17 17 17 17 17 16 16 16 14 14 15 16 17 18 18 18 18 18 18 18 18 18 18 18 18 18 18 18 18 17 17 17 17 17 17 17 17 17 17 17 16 16 15 15 14 14 14 14
22 21 21 23 23 22 23 23 23 23 23 22 22 21 21 21 20 20 20 19 20 20 19 19 20 21 21 20 21 24 23 20 19 19 18 17 17 17 17 17 17 17 17 16 16 16 15 15 15 16 17 18 18 18 18 18 18 18 18 18 18 18 18 18 18 18 18 18 18 18 18 18 17 17 17 17 17 17 16 15 15 14 14 14 13 13
23 22 21 22 22 22 24 23 23 24 24 23 23 22 22 21 20 20 20 18 19 20 19 19 19 21 22 19 20 23 22 19 19 19 18 17 17 17 17 18 17 17 17 16 16 16 15 15 15 16 17 17 17 17 17 18 18 18 18 19 19 18 18 19 18 18 18 18 18 18 18 18 18 17 17 17 17 16 15 15 14 14 14 13 12 12
22 23 22 21 22 23 23 21 20 21 22 22 22 21 21 22 21 21 21 19 19 18 18 19 19 21 21 18 18 21 19 18 18 18 19 18 17 17 17 17 17 17 17 16 16 16 15 15 15 16 16 16 16 17 17 17 18 18 19 19 19 18 19 19 19 19 19 18 18 18 18 18 18 17 17 17 16 15 15 14 14 14 13 13 12 11
22 23 22 21 22 23 23 21 19 20 22 22 22 20 20 22 21 21 20 20 20 19 19 19 19 21 21 18 17 19 18 18 18 18 19 18 17 17 17 17 17 17 17 16 16 15 15 15 15 15 16 16 16 17 17 17 17 18 19 19 19 19 19 19 19 19 18 18 18 18 18 18 17 17 17 16 15 15 14 14 14 13 13 12 11 11
23 22 21 21 21 22 22 22 21 21 22 23 22 20 20 21 21 20 19 20 20 20 20 20 20 21 22 18 17 19 19 19 18 18 18 18 18 18 17 17 17 17 17 17 16 16 15 15 15 15 15 16 16 17 17 17 17 17 18 19 19 19 19 19 19 19 18 17 18 18 18 18 17 17 16 15 15 15 14 14 13 13 12 12 11 10
23 22 22 21 21 20 21 21 21 22 22 22 22 21 20 21 21 21 20 20 21 19 19 20 20 21 22 21 19 19 19 20 19 18 18 18 18 17 17 17 17 17 17 17 16 16 15 15 15 15 15 16 16 17 17 17 17 17 18 19 19 19 19 19 18 18 18 17 18 18 18 17 17 16 15 15 15 14 14 13 13 12 11 11 10 10
23 21 22 22 22 21 22 22 21 21 22 22 22 23 21 20 21 22 21 20 21 19 19 20 21 21 22 22 22 20 19 20 19 18 18 18 18 18 17 17 17 17 17 16 16 16 16 15 15 15 16 16 16 17 17 17 17 17 18 18 19 19 19 18 18 18 18 17 17 17 17 17 16 15 15 15 14 14 13 12 12 11 11 10 10 9
24 22 21 22 23 22 23 22 20 20 23 23 22 23 22 20 20 22 22 21 20 20 20 21 20 20 22 23 23 22 20 20 19 19 19 18 18 18 17 17 17 17 16 16 16 16 16 16 15 15 15 16 16 17 17 17 17 17 17 18 19 19 19 18 18 18 17 17 17 17 17 16 15 15 14 14 13 13 12 12 11 11 10 9 9 8
25 23 20 21 23 23 21 20 20 21 22 22 23 23 23 22 21 22 22 21 21 21 21 21 20 21 23 24 23 23 21 20 20 18 18 18 18 17 17 17 17 17 17 17 16 16 16 16 15 14 15 16 16 16 17 17 17 17 17 18 18 18 18 18 17 17 17 16 16 16 16 15 15 14 14 13 13 12 12 11 11 10 9 9 8 7
23 23 20 20 23 23 20 19 20 21 22 22 23 23 22 22 21 22 21 20 20 21 20 19 19 21 23 23 24 22 19 18 18 18 18 18 18 18 18 18 17 17 17 17 17 16 16 16 15 15 15 16 16 16 17 17 17 17 17 18 18 18 18 17 17 16 16 16 16 16 15 15 14 13 13 12 12 12 11 11 10 9 9 8 7 7
22 22 20 20 22 22 21 20 20 21 22 22 23 22 21 21 20 21 21 19 19 20 20 18 19 22 22 20 20 19 18 18 19 18 19 19 18 18 18 18 18 17 17 17 17 16 16 15 15 15 15 16 16 17 17 17 18 18 17 17 18 18 17 17 16 16 16 15 15 15 15 14 13 13 12 12 12 11 11 10 9 9 8 7 7 6
24 21 20 21 22 21 20 20 21 21 22 21 22 23 22 21 21 21 21 20 21 22 21 19 20 24 23 19 18 18 18 19 20 19 19 18 18 18 19 18 18 18 18 17 17 16 17 16 15 14 15 16 17 17 17 18 18 18 18 18 17 17 17 16 16 16 15 15 15 14 14 13 13 12 12 12 11 11 10 9 9 8 7 7 6 6
24 23 22 21 22 21 20 20 21 22 21 21 22 23 23 22 22 22 21 21 21 21 22 21 23 23 21 18 20 20 19 19 20 20 19 19 18 18 18 19 19 19 18 18 17 17 17 16 15 15 16 16 17 18 18 18 18 18 18 18 17 16 16 16 16 15 15 14 14 13 13 13 13 12 12 11 11 10 10 9 8 8 7 6 6 5
22 24 22 20 21 21 20 20 21 21 21 21 22 21 21 22 23 23 23 22 21 20 21 22 21 20 18 19 23 23 21 21 21 20 19 19 19 18 18 18 18 19 18 18 18 18 16 16 16 16 16 17 17 18 18 18 18 18 18 17 16 16 16 16 15 15 14 13 13 13 13 13 12 12 11 11 10 10 9 8 8 7 7 6 5 5
23 24 21 19 20 21 20 21 21 20 21 23 21 18 17 19 21 22 23 23 21 20 21 21 22 21 21 20 21 21 21 20 20 19 19 19 19 19 19 19 18 18 18 18 18 17 15 15 16 16 17 17 17 17 17 18 18 18 17 16 16 16 16 15 14 14 13 13 13 13 13 12 12 12 11 10 10 9 9 8 7 7 6 5 5 4
25 23 21 20 19 20 20 20 20 20 22 23 22 18 17 19 20 21 22 24 24 22 22 23 23 23 21 19 19 19 19 19 19 19 19 18 18 19 19 19 19 18 18 18 17 16 16 16 17 17 17 17 17 17 18 18 18 17 16 15 16 15 15 15 14 13 13 13 13 12 12 12 12 11 10 10 9 9 8 8 7 6 5 5 4 3
24 23 22 20 19 19 20 20 20 21 21 23 24 21 20 22 23 23 23 24 25 24 21 22 24 22 20 19 18 18 19 19 20 21 20 19 19 18 18 18 18 17 17 17 17 17 17 18 18 18 18 18 17 18 18 17 17 16 15 15 15 15 14 14 13 13 13 13 12 12 12 12 12 11 10 10 9 9 8 7 7 6 5 4 3 3
22 23 23 21 19 19 20 20 21 20 20 23 25 23 21 20 22 23 23 24 26 24 20 21 24 22 20 20 18 19 20 21 22 23 22 20 19 19 18 16 15 16 16 16 17 18 18 18 17 17 18 17 17 17 17 17 17 16 15 14 14 14 14 13 13 12 13 13 12 12 12 12 11 11 10 9 9 8 8 7 6 5 5 4 3 2
21 21 22 22 20 19 20 21 20 20 21 23 25 24 20 18 20 23 22 22 26 25 19 19 23 22 20 20 19 20 21 22 22 23 22 20 18 18 18 16 14 14 15 16 17 18 17 16 16 16 16 16 15 15 16 17 17 16 15 14 14 14 14 13 13 13 13 13 12 12 12 11 11 10 10 9 9 8 8 7 6 5 4 3 3 2
22 22 22 22 21 19 20 21 20 20 22 23 24 22 19 17 20 23 21 21 26 25 19 19 23 22 19 19 19 20 22 23 23 23 21 18 16 16 16 16 14 14 14 15 16 17 16 16 16 15 15 15 15 15 16 17 17 16 15 14 14 14 13 13 13 13 13 13 12 12 12 11 11 10 9 9 8 8 7 6 5 4 3 3 2 2
22 22 19 20 21 19 20 21 20 21 23 23 22 20 19 19 21 22 21 23 26 24 19 18 21 20 18 18 19 22 23 22 22 21 19 17 16 15 14 15 15 14 15 15 16 16 16 16 16 16 15 16 16 16 16 17 17 16 15 14 13 13 13 13 13 13 13 13 12 12 11 11 10 10 9 9 8 7 7 6 5 4 3 3 3 2
21 21 18 18 20 19 20 21 20 21 23 22 20 18 19 21 22 23 23 23 23 23 20 18 19 18 18 19 20 21 21 20 20 19 17 16 17 16 14 14 14 14 15 15 15 16 16 15 16 16 16 16 17 17 17 18 17 15 14 13 12 12 13 13 13 13 13 12 12 11 11 10 10 9 9 8 8 7 6 5 4 4 3 3 3 2
21 21 20 20 19 18 19 20 20 21 22 21 21 21 21 23 24 25 25 22 21 21 21 19 18 17 18 19 19 19 20 20 19 18 16 15 16 15 14 13 14 14 14 15 15 16 16 16 16 17 17 16 17 17 17 17 16 14 13 13 12 13 13 13 13 13 12 12 11 11 10 10 9 9 8 8 7 7 5 4 4 4 3 3 3 2
21 22 22 21 20 20 20 21 22 23 22 21 23 25 25 24 23 24 26 24 22 21 20 20 20 17 17 19 19 18 19 20 18 17 16 16 16 15 14 13 14 14 15 15 15 16 17 17 16 16 16 16 16 17 17 17 16 13 12 12 12 13 13 13 13 13 12 12 11 10 10 9 9 8 8 7 7 6 5 4 4 4 3 3 3 2
22 22 22 22 21 21 22 23 23 23 21 20 22 24 24 22 20 21 24 26 25 22 20 21 22 19 16 18 18 18 19 19 17 16 16 16 16 15 15 14 14 14 15 16 16 16 17 18 17 16 15 14 15 16 16 17 17 14 12 13 13 13 13 13 13 12 12 11 10 10 9 9 8 8 8 7 6 6 5 5 4 4 3 3 3 2
21 20 21 23 23 21 21 22 21 21 22 22 22 21 21 20 19 20 22 25 25 23 21 22 24 21 18 17 18 19 19 18 17 16 16 16 15 14 14 13 14 15 15 15 16 16 16 17 16 15 14 14 14 15 16 17 17 16 14 13 13 13 13 13 12 12 11 11 10 9 9 9 8 7 7 6 6 6 6 6 5 4 3 3 2 2
20 19 21 23 23 22 23 23 22 23 23 23 22 21 21 21 20 19 22 24 24 23 22 22 23 20 18 17 19 20 19 17 17 16 15 15 15 15 13 13 14 14 15 15 16 15 16 15 14 14 14 14 14 15 15 15 16 16 15 14 13 13 13 13 12 12 11 10 10 9 9 8 8 7 7 6 6 6 6 5 5 4 3 3 3 2
21 21 22 22 22 23 24 25 24 23 22 21 21 22 23 23 22 20 21 21 21 21 20 19 19 18 18 18 19 19 18 16 16 16 15 15 15 14 13 13 13 14 15 15 15 15 15 15 14 14 14 14 14 14 14 14 15 15 15 14 13 13 13 12 12 12 11 10 10 9 8 8 8 7 6 6 6 6 5 5 4 4 4 3 3 3
21 22 22 22 23 24 24 24 24 24 25 25 24 23 23 23 22 22 21 19 19 20 20 18 17 17 19 19 19 18 18 17 16 16 15 15 15 14 13 13 14 14 15 15 15 15 16 16 16 15 15 15 15 14 14 14 15 15 15 14 13 13 13 12 12 11 10 10 9 9 8 8 8 7 7 6 6 6 5 5 4 4 4 3 3 3
22 24 23 22 23 25 25 25 24 24 25 26 26 26 24 21 20 22 22 21 22 22 22 21 18 15 15 16 16 17 19 17 15 14 15 15 15 14 13 13 14 14 15 15 15 15 16 16 17 16 15 15 15 14 14 14 14 14 15 14 14 13 13 12 11 11 10 9 9 8 8 8 7 7 7 7 6 5 5 4 4 4 4 3 3 3
23 24 24 23 24 24 25 25 23 22 24 25 25 25 23 20 19 23 24 24 24 23 21 21 21 20 18 16 13 16 19 18 14 14 15 15 14 14 14 14 14 14 14 14 14 14 14 15 15 15 15 15 14 14 14 14 14 14 14 14 14 13 13 12 11 10 9 9 9 8 8 8 7 7 7 7 6 5 5 4 3 3 3 3 3 2
Height
788 798 803 799 799 800 801 805 805 807 810 816 824 828 831 831 832 830 828 826 823 828 836 837 837 837 835 836 835 835 835 834 836 836 836 836 836 837 838 838 838 837 837 836 836 837 837 838 838 839 839 840 840 841 841 841 841 841 841 841 841 842 842 842 842 841 842 841 841 842 842 842 842 842 842 842 841 841 840 840 839 838 838 837 836 836
790 800 798 790 792 793 798 805 805 809 813 817 824 829 832 832 832 830 828 826 823 829 839 838 838 839 836 836 836 835 835 834 834 835 836 836 836 837 838 838 838 837 837 837 837 838 838 838 839 840 840 840 841 841 842 842 842 842 842 842 842 842 843 842 843 842 842 842 842 842 842 842 842 843 842 842 842 841 841 840 840 839 838 838 837 836
799 799 789 785 793 796 801 805 805 810 815 820 825 828 832 832 831 831 827 826 825 829 839 838 837 839 836 835 835 834 834 833 832 833 834 834 836 837 837 837 837 838 838 838 838 838 839 839 839 840 840 841 841 842 842 843 843 843 843 843 843 843 843 843 843 843 843 843 843 843 843 843 843 843 843 843 842 842 842 841 840 840 839 839 838 837
803 793 784 788 793 796 804 806 806 812 817 822 825 826 831 832 831 833 830 828 826 828 835 836 836 838 835 835 835 834 833 831 831 832 832 833 834 834 835 835 836 837 838 838 839 839 839 839 839 840 841 841 842 842 843 843 843 844 843 843 844 844 844 844 844 844 843 843 843 843 843 843 843 844 844 843 843 843 842 842 841 841 840 839 839 838
794 787 786 791 791 793 803 807 807 812 819 823 822 821 826 830 830 832 831 829 829 831 831 832 839 840 836 836 835 833 833 832 831 832 832 832 833 833 833 834 834 835 836 836 837 838 838 839 839 840 841 842 842 843 843 844 844 844 844 844 844 844 844 844 844 844 844 844 844 844 844 844 844 844 844 844 844 843 843 842 842 841 841 840 840 839
788 784 786 791 795 796 800 806 806 808 818 824 820 817 821 826 828 830 831 831 835 838 832 832 844 843 836 837 835 833 835 833 832 832 831 831 832 833 833 832 834 834 835 835 836 837 838 838 839 840 841 842 842 843 844 844 844 844 844 844 845 845 845 845 845 845 845 844 844 844 844 845 845 845 845 844 844 843 843 843 842 842 841 841 840 840
785 784 785 789 797 800 801 805 805 804 816 823 814 812 819 824 828 831 831 832 838 842 835 833 842 843 838 835 831 831 834 833 832 832 830 830 831 832 832 831 833 834 835 835 836 837 838 838 839 840 841 842 842 843 844 844 844 844 844 845 845 845 846 846 845 845 845 845 845 845 845 845 845 845 845 845 844 843 843 843 843 843 842 842 841 841
783 786 790 792 797 804 804 804 804 802 810 817 810 811 819 824 830 832 830 833 838 841 838 835 839 843 839 831 829 830 831 831 832 831 829 829 829 830 830 831 831 832 833 834 835 836 837 838 838 839 840 841 842 843 843 843 844 844 845 845 846 846 846 846 846 846 846 845 845 845 845 845 845 845 845 845 844 844 844 844 843 843 843 842 842 841
779 784 790 792 797 803 800 797 799 798 806 815 813 814 819 824 829 829 829 834 838 839 842 840 840 844 837 830 832 832 831 832 829 827 827 826 827 828 829 829 829 831 831 832 834 834 836 837 837 839 840 841 842 842 843 843 844 844 845 845 845 846 846 846 846 846 846 846 845 845 845 845 846 845 845 845 844 844 844 844 844 843 843 843 843 842
778 780 781 786 793 796 794 795 796 796 805 814 814 815 821 825 827 827 830 832 835 838 839 838 840 844 836 828 835 836 832 829 823 821 822 822 824 825 826 827 827 829 830 831 832 833 834 836 836 838 839 840 841 842 842 843 844 844 844 845 845 846 846 846 846 846 846 846 846 846 846 846 846 845 845 845 845 845 845 845 844 844 844 844 843 843
779 777 777 783 788 789 792 797 798 798 803 808 812 818 824 826 825 829 832 830 837 841 836 837 840 842 837 826 829 830 819 814 815 818 820 819 821 823 823 825 825 827 829 829 831 832 834 836 837 838 839 839 840 841 842 842 843 844 844 845 845 845 846 846 846 846 846 847 846 846 846 846 846 846 846 845 845 845 845 845 845 845 844 844 844 843
780 780 782 782 783 787 792 799 803 801 802 806 812 821 827 832 831 833 834 833 843 843 836 840 841 842 841 824 816 817 807 805 809 811 814 815 817 820 821 822 823 825 826 828 830 832 834 835 836 837 837 839 840 840 841 841 842 843 843 844 844 845 845 845 846 846 846 847 847 847 847 846 846 846 846 846 846 846 846 846 846 845 845 844 844 843
783 783 785 783 782 785 791 805 812 807 807 810 816 823 831 842 843 840 843 845 846 841 838 842 839 840 840 819 807 809 804 803 805 803 806 809 812 816 818 819 821 823 824 827 829 831 833 834 835 836 836 837 839 839 840 840 841 842 842 843 844 844 845 845 846 846 846 847 847 847 847 847 847 847 846 846 846 846 846 846 846 845 845 844 844 843
792 789 785 785 786 784 787 803 815 813 813 815 818 822 828 842 849 847 851 852 846 840 839 841 838 837 831 811 801 802 797 797 799 800 802 803 807 811 813 816 818 821 823 825 827 829 831 832 832 833 834 835 837 838 839 839 840 841 842 842 843 843 844 845 845 846 846 847 847 847 847 847 847 847 847 847 847 847 847 846 846 845 845 844 844 844
806 803 789 785 787 784 785 793 798 803 812 814 814 818 821 826 833 839 842 841 843 846 845 843 839 833 820 805 799 798 796 796 796 798 800 801 805 808 811 816 817 820 822 823 826 827 828 830 831 832 833 834 835 836 837 838 839 840 841 841 842 842 843 844 845 845 846 846 847 847 847 847 847 847 847 847 847 847 847 847 846 845 845 845 844 844
811 805 786 782 784 781 784 787 787 796 812 816 813 817 819 813 815 832 843 841 843 847 845 842 836 824 811 800 799 800 798 798 797 798 801 803 806 809 812 815 816 818 820 821 824 825 827 828 829 830 831 832 833 835 836 837 838 839 839 840 841 841 842 843 844 845 845 846 846 846 847 847 847 847 847 847 847 847 847 846 846 845 845 845 844 844
809 801 784 782 785 781 783 785 785 792 805 814 815 814 813 807 807 826 844 847 846 841 838 840 831 817 810 801 798 800 799 800 802 800 802 804 806 809 811 812 814 816 817 819 821 822 825 826 828 828 829 830 832 833 834 835 836 837 838 839 840 840 841 842 843 844 844 845 845 845 846 846 846 846 846 846 847 847 847 846 846 845 845 845 844 843
799 797 787 784 786 784 782 783 785 786 793 807 814 806 805 809 809 815 829 840 846 841 836 840 833 823 820 810 800 799 799 802 805 802 804 806 807 809 810 810 811 813 814 816 818 821 823 824 826 827 827 828 830 831 832 834 835 836 837 838 839 839 840 841 842 843 844 844 844 844 845 845 846 846 846 846 846 846 846 846 846 845 845 844 844 843
794 797 793 787 788 787 781 785 793 792 789 795 800 797 802 812 813 816 824 830 839 843 838 837 837 828 821 811 800 795 795 800 805 805 805 807 807 807 808 809 810 811 814 816 817 820 821 822 824 824 825 827 828 830 831 832 834 835 836 837 837 838 839 840 841 842 842 843 843 843 844 844 845 845 845 846 846 846 846 846 845 845 845 844 843 843
792 799 798 790 787 787 785 791 800 799 793 792 795 798 802 808 813 816 822 824 829 839 841 836 831 819 807 803 797 790 790 796 802 805 804 804 804 804 805 807 809 811 813 814 816 818 819 820 821 822 823 825 826 828 829 831 833 833 834 835 836 837 838 839 840 840 841 842 842 842 842 843 844 844 845 845 845 846 845 845 845 845 844 844 843 843
790 799 802 793 789 792 792 793 794 794 796 797 801 805 806 809 814 815 820 825 823 829 839 841 831 810 796 798 793 784 786 792 796 798 800 802 801 801 803 804 806 809 810 812 813 815 816 818 819 820 822 823 825 827 828 829 831 831 833 834 834 836 837 837 838 839 839 840 841 841 841 842 843 843 844 845 845 845 845 845 845 844 844 844 843 843
786 795 800 799 796 794 789 787 787 788 790 794 796 801 803 805 812 816 825 830 825 826 833 837 831 807 791 795 793 783 786 791 792 793 796 799 799 800 801 801 804 806 808 810 811 813 815 816 818 819 821 823 824 826 827 828 829 830 831 832 833 835 836 836 837 837 838 839 840 840 841 841 842 843 843 844 844 844 844 844 844 844 844 843 843 843
782 789 796 800 796 790 787 789 792 790 789 792 795 799 802 802 805 813 821 823 824 831 833 834 832 808 791 796 795 788 790 792 792 793 794 796 797 798 800 800 803 804 805 808 809 811 813 813 816 818 819 822 823 824 826 826 827 829 829 831 832 833 834 835 836 836 837 838 839 839 840 840 841 842 842 842 843 843 844 844 844 844 844 843 843 843
781 789 796 798 794 788 786 789 792 791 790 793 797 801 803 801 801 806 812 814 819 828 828 831 831 807 790 797 797 791 792 791 792 793 792 795 797 798 800 800 802 804 805 808 809 810 812 813 816 818 818 820 821 822 824 824 825 827 828 829 830 831 832 833 834 835 835 837 837 838 840 840 840 841 841 841 842 842 843 843 843 844 844 844 844 844
781 793 798 803 807 803 799 798 796 792 792 793 797 803 803 802 804 807 812 814 816 821 821 823 823 804 790 796 795 791 791 790 791 793 792 794 796 797 799 799 801 803 805 807 809 810 812 813 815 816 817 818 819 820 822 822 824 825 826 827 828 829 831 831 833 834 834 835 836 837 839 839 839 840 840 841 841 841 842 842 843 844 844 844 844 844
780 793 794 800 814 819 815 810 802 794 794 796 797 800 801 801 801 802 808 813 814 822 825 818 812 799 788 791 792 791 792 790 791 794 792 793 795 796 798 799 800 803 804 806 807 809 811 812 813 814 815 816 817 818 820 820 822 823 824 825 827 828 829 830 832 833 833 834 835 836 838 838 838 839 840 840 840 841 841 842 843 843 844 844 844 844
784 794 792 791 798 802 798 796 797 795 793 794 794 793 798 803 801 799 807 811 811 820 822 809 803 799 790 789 789 790 792 791 791 794 793 793 794 795 797 798 799 801 802 804 806 808 810 811 811 813 813 814 815 816 817 819 820 821 822 823 825 826 827 829 830 831 832 833 834 835 836 837 838 838 839 840 840 840 841 842 843 844 845 846 846 846
781 789 795 793 787 789 790 790 797 797 789 790 792 789 794 802 803 799 800 803 807 816 814 803 804 803 791 786 787 787 790 791 791 792 792 792 793 794 796 798 799 801 803 804 806 807 808 809 810 811 811 812 813 814 816 817 818 820 821 822 823 825 825 827 828 829 830 832 833 834 835 836 837 838 838 839 840 841 842 843 844 845 846 847 847 847
777 786 798 797 786 789 797 798 798 796 792 794 793 788 791 798 800 796 796 800 803 805 802 800 804 801 788 783 782 781 784 786 787 790 790 791 793 794 796 798 799 801 803 804 805 805 806 807 807 808 809 810 811 813 814 815 816 818 819 820 821 823 824 825 826 828 829 830 832 833 834 835 837 837 838 839 840 841 842 843 845 845 846 847 847 848
779 786 798 798 786 787 798 803 800 795 793 793 791 791 793 796 798 797 799 804 804 800 801 805 806 797 785 780 779 779 785 788 787 790 790 790 792 793 795 797 798 800 801 801 802 803 804 804 805 806 807 808 809 810 812 813 814 815 816 818 819 821 822 824 825 826 828 829 831 832 833 834 836 837 838 840 841 842 843 844 846 847 847 848 848 849
779 790 801 797 789 791 797 800 799 796 794 792 791 794 797 799 802 801 800 805 805 801 804 809 806 794 784 783 784 784 787 788 787 789 789 789 791 792 794 796 797 798 799 799 800 801 801 802 803 805 806 806 807 808 809 810 812 813 815 816 818 819 821 822 824 825 827 828 830 831 832 834 836 837 839 840 842 843 844 845 847 847 848 849 849 850
776 791 799 793 792 798 799 800 799 795 795 795 791 791 794 796 797 796 795 798 796 794 800 807 800 785 780 784 787 786 786 785 785 787 788 790 791 791 792 793 794 795 796 796 797 799 799 800 802 803 803 803 804 805 807 808 810 812 813 814 816 818 819 821 823 824 826 827 829 830 832 833 836 838 840 841 843 844 845 846 847 848 849 850 851 851
780 784 791 794 797 800 803 805 799 793 799 801 791 785 788 790 791 792 792 792 792 790 793 796 787 779 782 786 783 783 786 786 784 784 786 788 790 791 791 790 791 792 792 793 794 795 796 797 798 799 799 800 802 803 804 807 808 810 812 813 815 817 818 820 821 823 825 827 828 830 831 833 836 838 840 842 843 845 846 847 848 849 850 850 851 852
785 781 790 799 797 798 804 801 796 803 810 801 787 785 787 786 786 787 785 785 788 789 786 785 783 783 787 784 777 778 781 779 778 779 780 783 786 788 789 789 789 789 789 790 791 791 793 794 795 797 797 799 801 802 804 806 808 809 811 813 814 816 817 819 821 823 825 827 829 830 832 834 837 839 841 843 844 845 847 848 848 850 850 851 852 852
783 783 795 802 799 800 803 800 805 815 807 786 783 792 793 788 786 784 781 780 784 786 783 782 781 779 780 779 776 777 778 777 778 779 780 781 782 784 786 786 787 788 788 789 789 789 790 792 793 795 796 798 800 801 803 805 807 809 810 812 814 816 817 818 820 823 825 827 829 830 832 835 837 839 841 843 845 846 847 848 849 850 851 852 852 853
778 785 794 804 808 806 803 807 813 810 792 777 782 792 791 789 788 786 783 777 774 777 779 776 774 774 776 780 781 780 780 780 779 779 780 781 782 782 783 783 784 785 785 786 787 788 789 790 792 793 795 796 798 800 802 804 805 807 809 811 813 815 817 819 821 823 825 827 829 831 833 836 838 840 842 843 845 847 848 849 850 850 851 852 853 854
777 783 788 799 811 811 809 811 806 799 792 781 776 781 782 780 780 781 783 776 767 770 775 772 770 773 776 779 782 781 780 781 781 780 778 778 780 781 781 781 782 783 784 784 786 787 788 789 790 792 793 795 796 798 800 802 804 806 808 811 813 815 817 819 821 823 825 827 830 832 834 836 838 840 842 844 845 847 848 849 850 851 852 852 853 854
778 781 783 794 810 814 812 810 806 808 805 787 773 774 776 777 776 774 779 778 766 765 772 770 767 772 775 779 783 781 780 783 785 780 774 775 778 778 779 781 781 782 783 784 785 786 786 787 789 790 792 793 795 797 798 800 804 806 808 811 813 815 818 820 822 824 826 828 831 833 835 837 838 840 842 844 846 847 848 849 850 851 852 853 853 854
782 786 786 792 807 813 808 807 813 813 800 782 772 771 776 781 776 772 784 786 766 760 771 772 767 771 774 776 780 780 781 788 787 777 771 773 776 776 778 780 781 782 783 784 785 785 785 787 789 791 792 793 795 797 798 801 803 805 808 811 813 815 818 820 822 824 826 829 832 834 836 837 839 840 842 844 846 847 848 849 850 851 852 853 854 854
783 787 790 793 803 811 808 805 810 805 788 776 773 773 779 781 773 780 799 792 763 758 770 770 766 770 774 777 780 779 779 782 780 772 769 773 775 776 778 779 780 782 783 784 785 785 786 787 789 791 793 794 796 798 800 802 804 806 809 811 814 816 818 820 823 825 828 830 832 834 836 838 839 841 843 844 846 847 848 849 850 851 852 853 854 854
789 792 802 802 802 810 810 805 806 798 780 774 775 775 777 777 778 791 799 779 759 761 770 769 767 770 773 776 777 774 772 772 770 769 770 772 775 777 779 779 780 782 783 784 785 786 787 789 790 791 794 795 797 799 801 802 804 807 810 812 814 816 818 821 824 826 828 830 832 835 837 838 840 842 843 844 846 847 848 849 850 851 852 853 854 854
793 797 808 808 805 810 809 804 806 796 776 770 776 777 776 778 784 786 776 764 760 763 765 768 770 770 771 772 770 769 768 769 770 771 772 773 774 776 779 780 781 783 784 785 786 787 788 790 792 793 795 797 798 800 801 803 805 808 811 813 815 817 819 822 824 827 829 831 833 835 837 839 841 842 843 845 846 847 848 849 851 851 852 853 853 854
787 789 797 802 805 810 810 808 807 795 775 768 773 776 775 775 774 767 760 762 765 762 763 767 768 769 770 769 767 769 770 770 771 773 774 775 775 776 778 780 781 782 784 785 787 788 789 791 792 794 795 797 799 801 802 804 806 809 811 813 815 818 820 823 825 827 829 831 833 835 837 839 841 842 843 844 845 846 848 849 850 852 852 853 853 853
784 784 789 794 797 800 802 799 790 778 769 767 766 766 766 765 762 759 758 760 761 761 764 764 764 768 769 766 768 771 770 770 772 773 775 777 776 776 779 780 781 782 783 785 787 788 789 791 793 794 796 798 800 802 803 804 806 809 812 814 816 819 821 823 825 827 829 831 833 835 837 839 841 842 843 844 845 846 847 849 850 851 852 853 853 853
779 778 779 782 785 786 784 779 771 766 768 768 763 760 760 759 760 761 759 757 757 760 762 761 760 765 766 766 769 770 769 770 772 773 774 775 775 776 778 779 781 782 784 786 788 789 790 791 793 795 797 799 801 802 804 805 806 808 811 814 816 818 820 823 825 827 829 831 833 835 837 839 841 842 843 844 845 846 847 848 849 851 852 853 853 853
777 778 777 775 777 778 774 770 768 767 766 763 761 761 761 760 761 761 759 756 756 757 758 758 757 759 763 766 768 768 768 769 771 773 774 774 776 777 778 780 782 783 784 786 788 790 791 792 793 795 797 799 801 802 804 805 806 808 810 813 816 818 820 822 824 827 829 831 833 835 836 838 840 842 843 844 845 846 847 848 849 850 851 852 853 853
777 779 777 774 775 777 773 768 766 765 762 760 760 759 758 758 759 760 758 756 755 756 757 757 756 758 761 763 763 764 766 768 770 773 774 775 776 776 777 779 781 782 784 786 787 789 791 792 794 795 796 798 801 802 804 805 806 808 810 812 815 818 820 822 824 826 828 830 832 834 836 837 839 841 842 844 845 846 847 848 849 850 850 851 852 852
776 775 775 776 777 775 770 764 762 761 760 760 760 758 755 754 755 757 757 756 756 757 757 756 757 759 759 760 761 762 765 768 770 771 772 774 775 775 776 778 779 782 784 786 787 789 790 791 792 794 795 797 799 801 803 805 806 808 810 812 815 817 819 821 823 825 827 829 831 833 835 837 838 839 841 843 844 845 846 847 848 849 850 850 851 851
774 773 774 776 774 770 767 764 762 761 758 755 755 755 753 752 753 754 755 756 756 756 756 757 758 758 757 758 759 761 764 767 767 768 770 773 774 775 776 776 778 781 783 784 786 788 788 789 791 792 794 796 797 800 802 804 806 808 809 811 814 816 818 821 823 825 826 828 830 832 834 836 837 839 840 842 843 845 846 847 848 848 849 850 850 851
773 771 774 777 776 772 769 764 762 765 763 757 752 751 751 752 753 753 753 754 754 753 754 755 756 758 758 758 758 760 762 763 765 767 769 770 771 772 773 775 778 781 782 783 786 787 788 789 790 791 793 795 796 799 801 803 805 807 809 811 813 815 817 820 822 824 826 827 829 831 833 835 836 838 839 840 842 844 845 847 848 848 849 849 850 850
768 767 769 772 773 771 765 760 762 766 764 757 751 749 750 752 753 752 750 750 750 750 752 754 754 755 756 757 758 758 758 760 763 766 767 768 769 769 771 773 776 778 781 783 785 786 787 789 790 791 792 793 795 797 799 801 804 806 808 810 812 814 816 818 820 822 824 826 828 829 831 833 835 836 838 839 841 842 844 845 847 848 848 849 849 850
Wind_Speed
3 2 2 3 5 7 7 5 4 3 8 9 5 5 3 2 0 2 0 1 2 4 3 2 6 6 6 4 3 3 1 2 4 4 3 2 3 4 4 3 4 3 2 4 8 12 15 15 14 13 12 11 11 10 10 10 10 10 11 13 14 14 12 12 11 11 12 12 11 12 12 12 12 11 11 11 11 11 11 11 11 11 10 10 9 8
2 2 7 6 6 7 6 6 7 7 8 8 6 5 2 2 1 1 1 0 1 3 1 2 6 5 4 3 3 3 3 3 4 5 4 3 3 4 4 4 4 2 2 6 8 10 14 15 14 13 12 12 13 12 11 11 11 10 11 12 13 12 11 11 10 10 10 10 10 11 11 10 11 11 11 11 11 10 10 10 10 10 10 9 9 8
0 5 10 5 6 7 6 7 8 8 7 6 4 5 2 1 1 2 2 2 2 3 1 2 5 2 2 2 3 4 4 3 4 5 4 5 5 4 5 5 4 3 3 5 6 9 12 14 14 13 13 13 12 12 12 12 11 10 10 11 11 10 9 9 9 8 9 9 9 10 11 11 12 12 11 11 11 10 10 10 10 10 10 10 10 9
1 6 7 4 10 10 7 6 9 8 5 4 4 5 3 3 2 0 2 3 3 2 3 3 4 2 3 0 2 4 4 2 3 5 4 4 5 5 5 5 5 5 4 5 4 6 10 11 12 13 13 13 11 11 11 12 11 11 10 10 10 9 8 7 7 7 8 8 9 9 11 12 12 12 10 10 9 9 9 9 9 9 9 10 10 10
6 5 2 7 9 10 9 6 8 7 2 1 3 4 4 5 3 3 2 1 4 3 3 5 4 4 2 2 3 3 2 2 2 4 4 4 4 3 4 5 5 6 6 6 6 6 9 10 11 13 13 12 11 10 10 11 11 11 10 9 9 7 7 7 8 8 8 8 8 10 12 12 12 11 9 9 8 7 8 8 8 8 8 9 10 10
8 5 6 8 6 9 10 6 6 7 4 1 3 5 6 6 5 6 5 3 4 3 1 4 4 4 3 2 5 2 1 4 2 4 6 6 5 4 4 5 5 5 5 6 6 7 10 11 12 12 13 13 11 9 9 10 10 10 9 9 8 7 7 7 7 8 7 7 7 8 9 9 9 9 8 8 7 7 7 8 9 8 7 8 9 10
3 0 5 7 6 7 7 5 5 6 7 1 5 7 8 7 8 8 5 3 3 1 2 4 4 2 4 3 7 4 4 6 4 5 7 7 6 5 5 5 6 5 5 4 5 7 10 11 12 13 14 14 11 9 9 9 8 8 7 7 7 7 7 7 6 6 5 6 6 6 7 7 8 8 7 6 6 6 6 7 8 8 7 8 9 9
2 4 5 6 6 5 4 3 5 7 8 3 4 9 10 9 9 7 5 3 2 2 2 3 4 1 2 4 5 6 6 6 6 7 8 7 7 7 6 6 7 7 7 6 6 7 10 13 15 15 16 15 12 10 9 9 8 7 6 5 6 6 6 6 5 4 5 5 5 6 7 7 7 7 7 5 5 5 5 6 7 8 8 8 8 8
2 4 6 7 5 4 4 4 9 9 5 1 3 10 9 8 7 5 5 3 1 2 2 3 2 2 3 5 2 3 6 7 9 10 9 8 8 8 7 8 8 8 8 8 7 9 12 15 17 18 18 16 14 11 10 9 8 7 6 5 5 5 4 4 3 2 3 5 5 4 5 6 6 6 4 5 6 6 6 6 7 7 7 7 7 7
1 3 8 9 5 5 3 2 9 8 4 3 9 11 8 6 5 4 4 3 2 3 2 5 3 3 4 4 1 2 4 9 10 10 9 9 8 9 9 9 9 8 8 8 8 11 14 17 19 19 18 17 15 13 11 10 9 9 7 6 5 5 4 4 3 2 1 3 5 5 4 5 4 4 4 4 6 8 8 9 8 8 7 7 6 6
2 1 4 5 4 5 4 6 5 7 9 9 9 10 7 4 3 3 2 3 3 2 4 5 5 4 2 4 3 4 5 9 10 7 7 8 8 9 9 9 9 8 8 7 8 10 14 16 17 17 18 18 17 14 12 12 11 10 9 8 6 6 5 5 4 3 2 1 3 4 5 5 4 4 4 4 6 8 9 9 8 8 7 7 7 7
5 4 1 0 2 5 9 8 5 5 8 7 5 6 5 3 3 3 3 4 3 2 5 3 4 5 1 4 5 6 6 5 8 9 10 11 10 9 9 9 9 9 9 8 6 8 11 12 13 15 17 18 19 17 15 15 13 13 12 10 8 7 6 6 5 4 3 2 0 2 3 4 5 4 3 4 5 6 7 8 7 7 6 7 8 9
4 1 2 1 2 5 9 7 4 4 4 5 6 5 4 2 3 3 3 2 1 3 3 2 4 2 4 7 6 9 9 7 8 9 11 13 12 10 9 9 9 8 8 8 7 7 8 11 13 15 17 19 20 20 19 17 15 14 14 12 11 9 8 7 7 6 5 4 2 1 1 2 3 3 2 3 3 4 6 7 8 8 7 8 9 11
3 5 2 3 1 1 6 7 4 1 1 5 6 4 3 3 3 2 3 2 1 3 3 1 3 1 4 5 6 9 10 9 9 7 9 12 13 12 11 10 9 9 9 8 7 7 8 12 16 17 18 20 22 22 21 19 17 16 16 14 13 11 10 9 9 8 8 7 5 4 2 1 1 2 3 3 4 5 5 6 8 9 10 11 13 15
1 3 2 3 1 2 3 4 6 6 4 4 3 5 4 3 3 1 3 1 2 2 3 3 1 2 2 3 5 6 7 6 6 6 6 8 9 9 9 8 9 9 8 7 7 8 10 15 18 19 19 20 22 23 22 21 19 18 17 16 15 14 12 11 11 11 11 10 8 6 5 5 4 4 4 4 5 6 6 7 8 10 11 13 15 17
3 3 6 3 1 4 3 2 4 6 4 1 2 4 1 3 4 1 1 4 3 1 2 2 2 4 4 4 4 3 3 1 4 6 7 6 6 7 8 9 9 9 8 8 7 8 11 16 19 20 20 21 22 23 23 22 20 19 18 17 16 15 14 13 13 13 13 12 11 9 8 7 7 6 6 5 6 7 7 9 10 10 12 14 16 17
2 4 6 2 3 1 4 5 4 4 4 2 2 2 4 3 7 4 1 0 2 2 2 2 3 4 3 3 5 5 6 5 5 6 7 7 8 9 9 9 9 9 9 9 8 8 11 16 19 21 22 22 23 24 24 23 21 20 19 17 17 16 15 15 15 14 14 13 13 13 11 10 9 9 8 7 7 8 8 9 10 12 14 15 15 15
3 2 6 2 4 3 1 6 4 3 5 4 2 5 3 2 4 4 2 3 4 0 3 2 3 5 2 2 5 5 4 2 3 6 6 7 8 9 9 9 10 10 10 9 9 9 12 16 19 22 23 24 24 24 24 24 22 21 19 18 18 17 16 16 15 15 15 15 15 15 15 13 12 11 10 9 8 8 9 10 11 13 14 12 11 9
4 0 6 2 3 3 3 6 3 4 2 5 4 3 3 2 1 1 1 1 1 1 3 3 4 3 3 3 3 1 3 4 4 5 6 7 9 9 9 9 9 9 8 8 7 7 10 15 20 23 23 24 24 24 24 23 23 22 21 20 19 19 18 17 17 17 17 16 17 17 17 16 15 13 13 12 10 10 11 12 13 12 11 9 7 5
3 2 3 3 1 1 4 4 2 4 3 3 2 1 2 2 3 1 1 2 1 1 2 3 4 3 5 5 5 7 8 7 7 7 7 9 10 9 9 9 8 8 8 8 8 7 10 16 21 24 25 25 25 25 24 24 23 23 22 22 21 20 19 19 19 19 18 18 17 18 18 18 17 15 15 14 12 12 14 13 12 11 8 5 3 2
3 3 2 4 4 1 0 2 5 6 2 1 2 1 2 1 2 1 1 1 2 2 2 1 3 5 6 4 6 8 8 9 10 9 8 9 9 9 9 9 8 9 8 8 8 8 11 17 21 24 26 26 24 23 24 24 24 23 23 23 22 21 20 20 20 20 20 18 17 18 18 18 18 16 16 15 15 15 14 12 10 7 4 1 3 4
2 3 2 1 2 1 4 5 5 7 6 5 4 3 3 3 3 2 2 3 1 2 3 2 2 6 5 3 5 6 6 8 9 9 8 8 9 8 8 9 9 9 9 9 9 8 11 16 20 22 24 24 22 22 23 23 23 23 23 23 23 22 21 20 20 20 20 18 17 17 17 17 17 15 15 16 17 15 12 9 6 3 2 3 6 7
3 4 3 1 3 5 6 3 1 5 5 5 3 2 4 3 4 5 2 4 1 1 1 3 1 6 5 3 4 6 5 6 6 7 7 7 8 8 8 8 8 8 9 9 8 9 13 17 20 21 22 22 22 22 22 23 23 24 24 24 24 23 22 21 20 20 20 18 16 15 15 16 16 15 16 17 15 12 8 5 3 4 4 6 8 9
2 3 3 1 4 4 4 4 3 3 6 5 0 1 4 2 3 5 5 3 3 2 2 1 2 5 5 4 4 5 4 4 5 6 6 6 6 6 7 7 7 7 7 7 7 9 13 15 16 17 18 20 22 22 23 23 23 23 24 25 25 25 24 22 21 21 20 18 16 13 12 14 16 15 15 14 11 7 4 4 6 6 7 9 10 10
1 1 3 2 4 5 6 6 5 4 2 2 1 0 2 4 6 4 2 3 1 3 4 3 3 6 5 4 3 1 1 3 4 4 5 6 5 6 6 6 7 6 6 7 7 7 9 10 13 15 18 20 22 23 24 24 23 23 25 26 26 26 25 24 22 21 19 17 15 12 9 12 15 14 12 9 6 5 6 7 8 9 10 10 10 10
2 2 4 5 3 1 1 2 3 2 1 1 1 1 2 4 6 3 1 3 1 3 4 4 5 6 6 4 5 3 2 2 2 3 4 5 5 6 6 6 6 7 7 8 8 7 8 9 12 15 18 20 22 23 24 25 24 24 26 27 26 26 26 25 23 21 18 16 14 11 9 11 13 12 9 7 7 8 9 10 11 11 12 11 10 11
4 2 3 6 7 7 6 6 5 3 2 1 1 1 2 3 5 5 3 1 3 3 2 5 6 3 7 6 3 2 2 3 3 4 5 5 5 6 6 6 6 6 7 7 7 7 7 8 11 15 18 20 23 24 24 25 25 25 26 27 26 26 26 24 22 21 18 16 13 11 11 12 11 8 7 8 10 12 12 13 13 13 13 12 11 11
5 1 1 5 6 7 7 5 1 2 2 3 2 2 2 3 5 5 3 3 4 3 4 7 5 3 6 7 5 6 5 5 5 6 6 6 6 6 5 5 6 5 5 5 6 7 8 8 10 14 18 21 23 24 23 23 24 24 25 26 26 25 25 23 21 19 17 14 12 12 11 10 8 7 10 12 14 14 15 15 14 14 13 12 12 12
6 1 2 3 3 3 4 2 0 2 1 2 4 5 4 4 5 4 5 5 7 5 6 6 5 5 7 6 7 8 7 6 6 5 5 5 5 5 6 6 6 6 6 6 7 8 9 9 10 14 18 21 22 23 23 22 23 23 23 24 24 23 22 20 17 15 14 12 12 11 10 9 10 12 14 16 16 16 16 16 15 15 14 12 12 13
4 1 1 2 3 4 3 1 1 2 2 1 2 3 3 5 7 5 4 4 6 5 5 4 5 8 8 7 8 7 5 4 3 3 4 5 6 6 7 7 7 7 7 9 9 9 9 9 11 15 18 19 21 23 23 23 24 23 23 23 22 21 19 16 14 13 12 12 12 12 12 13 15 16 18 18 17 17 17 16 16 15 14 13 12 12
3 0 1 2 3 5 6 5 3 3 3 1 4 4 1 2 3 3 2 3 3 3 3 3 2 7 7 6 6 3 4 5 4 5 6 5 6 7 7 7 7 8 8 9 9 9 9 9 11 13 16 19 23 24 24 25 25 23 21 20 19 18 17 14 12 12 13 14 15 16 17 18 19 19 19 18 17 17 17 16 16 15 14 13 12 12
4 2 1 4 4 4 5 6 5 4 6 2 7 6 2 3 3 3 3 4 5 4 2 1 1 5 6 3 1 1 4 6 5 6 6 4 5 7 8 8 8 8 9 9 8 9 9 9 10 13 18 22 24 25 25 25 24 21 20 18 16 15 14 13 13 14 16 17 19 20 21 21 21 21 19 18 17 17 17 16 16 15 14 13 12 11
3 4 1 3 2 4 5 4 3 4 6 4 7 6 6 5 4 4 3 5 5 6 6 3 5 6 5 3 2 1 3 4 6 6 5 5 6 7 8 9 9 9 9 9 9 10 10 11 14 18 22 24 24 25 26 25 22 21 18 15 13 13 14 14 16 18 20 22 23 24 23 23 22 21 19 18 18 17 17 16 16 15 13 13 11 9
3 5 3 2 2 4 7 5 4 5 3 5 6 6 7 6 6 6 6 6 6 4 3 4 5 4 3 5 6 7 7 5 6 7 6 6 7 8 8 9 9 9 9 9 9 9 10 13 16 18 21 22 22 22 22 20 18 17 14 11 12 15 17 18 20 22 24 26 25 25 24 23 22 21 20 19 18 18 17 16 15 14 12 11 10 9
4 5 2 1 3 1 3 5 5 1 6 8 5 2 5 6 7 7 7 7 7 7 5 6 7 6 6 6 5 6 6 3 2 4 5 5 6 8 9 9 9 9 9 9 8 8 10 13 14 16 17 18 18 18 16 15 14 13 12 14 17 19 20 22 24 25 27 27 26 25 25 23 22 21 20 20 19 18 17 15 15 14 12 11 10 9
5 4 2 2 2 1 2 5 2 5 8 7 5 2 3 2 3 3 5 8 7 9 8 7 8 7 6 6 4 2 2 1 3 1 5 5 6 7 8 9 9 9 9 9 9 10 12 13 15 17 17 17 16 16 16 15 16 16 18 19 21 22 24 25 27 27 28 28 27 25 24 23 22 22 21 20 19 18 17 15 14 13 12 11 11 10
7 4 2 2 1 1 2 1 3 4 7 8 4 2 3 3 4 5 2 8 8 7 8 8 6 5 4 3 0 1 4 4 4 5 5 5 6 7 7 7 7 7 8 8 9 11 12 13 15 16 17 17 18 19 19 19 20 22 23 23 24 25 26 27 27 28 28 28 27 25 23 22 21 22 21 20 19 18 16 15 14 12 11 11 11 10
5 3 4 3 0 2 4 1 3 3 4 6 7 6 3 4 6 6 3 5 8 6 8 8 7 6 5 4 4 3 5 5 2 6 6 6 6 6 6 5 5 8 8 8 7 8 8 11 13 15 17 19 20 22 23 25 25 26 26 26 26 27 27 27 28 28 28 28 26 24 22 21 20 21 21 20 18 17 16 14 13 12 11 10 11 10
7 4 4 4 1 2 5 2 2 2 5 8 8 8 4 3 5 5 5 5 8 6 7 7 7 7 7 6 7 6 5 3 5 8 6 6 6 5 6 4 5 6 7 8 10 11 11 12 13 15 18 21 22 24 27 28 28 27 27 27 27 27 27 27 29 29 28 27 25 23 21 20 19 20 20 19 17 16 15 15 14 13 12 11 10 10
6 5 4 3 2 2 3 1 3 4 5 7 7 5 2 3 5 8 4 7 8 5 6 8 8 8 7 7 7 6 5 6 7 6 5 6 5 5 6 7 8 9 10 10 11 13 15 16 18 19 21 23 25 27 28 29 28 27 27 27 27 27 27 28 29 28 27 25 23 22 20 19 19 19 19 18 18 16 15 15 15 15 14 12 11 10
3 3 2 2 3 3 3 1 3 5 6 7 6 5 4 2 6 6 3 8 6 4 6 8 8 8 8 8 7 6 6 5 3 2 5 8 7 5 7 9 11 12 14 15 16 18 19 19 21 23 24 25 27 28 28 28 26 26 26 27 26 26 27 29 29 27 25 23 22 21 20 19 18 18 18 18 18 17 16 15 15 16 15 13 11 10
1 1 1 2 3 3 3 1 2 5 4 3 3 3 3 2 1 4 7 5 3 4 5 6 7 7 8 9 8 6 3 0 2 4 6 8 8 7 8 11 12 12 14 17 19 21 21 21 21 23 24 26 28 27 27 26 26 26 26 26 25 26 28 29 28 26 24 23 22 21 21 20 19 19 19 19 18 17 17 16 15 15 14 13 11 9
4 2 1 2 3 2 2 2 1 3 4 4 6 3 1 2 5 6 3 1 3 4 4 5 6 7 8 9 8 4 1 3 4 5 5 6 7 8 9 12 14 15 17 19 20 22 24 23 23 24 25 25 26 26 26 26 26 26 26 25 25 27 29 28 26 24 23 23 23 22 22 21 21 20 20 19 18 17 18 18 16 15 13 12 10 9
4 4 2 2 3 4 3 1 3 4 6 5 5 4 5 5 5 5 2 1 3 4 4 5 6 7 8 9 7 4 3 3 5 6 6 6 6 8 9 12 15 17 19 20 21 23 25 24 23 23 24 25 26 27 27 26 26 26 25 25 27 29 29 27 25 24 24 23 24 24 23 22 21 20 20 19 18 18 18 18 17 15 13 11 10 9
4 4 4 2 3 4 5 6 7 4 4 5 5 5 6 5 3 5 4 1 3 4 4 4 5 7 8 7 6 5 4 4 5 7 8 8 8 8 9 11 15 18 19 19 21 22 24 25 25 24 23 23 25 26 26 25 25 26 26 27 30 31 29 27 26 25 25 25 25 25 24 23 22 20 19 19 18 18 18 18 17 16 14 12 10 10
3 2 3 2 2 3 4 4 4 4 5 6 6 6 5 4 3 4 4 3 4 5 5 5 6 7 8 7 7 6 6 6 7 7 7 7 7 8 10 12 15 18 19 19 20 21 22 24 25 24 24 23 23 26 26 25 24 25 28 30 32 31 29 28 27 26 26 26 26 26 25 24 23 21 20 19 18 16 15 16 16 16 15 13 10 10
2 2 2 0 1 0 2 4 3 4 6 6 5 5 6 6 5 4 5 5 4 4 6 6 5 6 7 8 9 8 7 7 8 7 6 7 7 8 10 13 16 18 20 22 22 22 23 24 24 24 25 24 24 25 26 24 23 24 28 32 32 30 29 28 27 27 27 27 27 27 26 25 25 23 22 20 19 17 15 15 15 16 15 14 12 11
1 2 1 0 1 1 4 7 6 6 7 7 5 5 6 7 6 6 5 5 3 2 4 5 4 5 7 7 9 8 6 7 9 8 7 7 7 8 10 14 18 19 20 21 22 23 24 25 25 25 25 26 26 26 25 24 23 25 29 32 32 30 29 28 27 27 27 28 28 28 27 26 26 25 23 21 19 17 17 16 16 15 14 12 10 10
1 0 2 1 0 2 4 6 6 6 7 7 5 7 8 6 6 6 5 5 4 3 3 3 3 4 6 7 7 7 7 8 9 9 9 8 7 8 12 16 20 21 22 23 25 26 27 27 27 27 26 26 27 27 26 25 25 27 31 32 32 30 29 28 27 27 27 28 28 28 28 27 26 25 24 22 20 18 16 16 15 14 12 10 8 7
0 2 2 2 2 3 4 4 2 2 4 7 7 7 7 6 5 5 4 5 6 6 5 5 3 3 5 6 7 8 8 8 9 9 9 9 10 13 17 18 19 20 23 24 24 25 26 26 27 28 27 26 27 28 27 26 27 29 32 32 32 31 30 29 28 27 27 29 29 29 29 28 27 26 24 22 22 20 18 16 14 13 11 10 10 8
2 3 4 5 3 5 7 7 4 2 4 8 8 7 6 3 6 6 7 7 8 7 6 7 5 4 5 7 8 10 9 8 10 11 9 9 14 18 21 23 23 24 24 24 23 24 24 23 24 25 26 27 28 28 28 28 29 32 33 33 32 31 30 29 28 28 28 29 30 30 30 29 28 27 25 23 23 22 21 20 17 14 12 11 10 9
Wind_Direction
124 122 229 221 199 199 209 189 160 131 120 122 115 114 135 131 66 271 237 297 125 83 19 103 128 151 160 155 170 192 182 136 146 160 173 171 159 168 178 187 177 163 133 109 125 135 135 133 129 122 119 115 113 112 111 110 110 113 122 129 127 123 122 122 125 131 133 129 123 122 121 118 114 108 101 95 90 82 78 78 73 68 65 59 54 53
119 205 247 234 199 185 172 147 124 105 105 109 113 116 86 87 222 300 98 114 55 79 27 136 128 153 177 172 182 170 175 202 185 173 185 188 183 183 184 193 184 161 110 114 128 141 142 139 136 131 130 125 121 118 112 107 110 113 115 121 122 119 115 110 112 122 131 127 118 116 116 117 115 107 101 99 94 88 84 79 72 67 63 54 49 52
50 237 253 226 135 124 122 121 110 102 105 101 112 121 92 146 156 3 26 10 14 93 159 153 124 150 251 197 192 187 185 221 206 186 193 187 188 194 191 194 178 148 123 125 138 153 152 146 142 140 136 131 127 121 112 107 108 110 110 112 114 111 106 102 100 104 113 111 105 108 113 116 113 108 107 104 98 91 85 78 72 67 60 51 51 56
210 253 259 162 127 116 111 114 107 96 87 98 125 127 150 200 152 56 302 354 24 98 141 131 100 3 314 282 220 220 207 229 206 197 215 203 200 201 194 191 175 168 163 157 167 171 162 155 151 147 142 139 136 130 121 114 109 108 110 110 107 105 104 107 104 97 102 106 104 110 117 115 111 111 111 103 95 90 84 78 74 71 63 53 55 60
235 247 144 122 129 124 122 128 123 113 86 116 157 144 157 189 182 161 175 47 31 37 103 110 61 329 290 196 240 258 220 246 211 185 222 245 230 198 188 198 187 182 179 174 182 188 179 175 165 155 151 151 149 143 133 123 115 110 109 107 104 104 105 108 107 100 102 109 112 118 121 117 111 109 104 95 91 91 88 79 74 73 66 55 57 64
256 236 130 120 129 131 132 148 154 141 129 222 217 173 147 153 146 126 120 77 48 10 320 103 71 299 287 226 235 254 185 225 214 187 213 231 222 194 194 205 198 193 195 187 184 187 190 187 175 165 164 164 162 159 149 137 127 119 116 114 111 109 108 106 103 100 101 109 112 113 119 119 111 106 100 94 90 89 88 79 69 64 59 54 60 69
261 243 115 129 137 133 127 144 182 146 119 219 225 158 130 128 130 126 112 73 85 234 271 93 108 260 302 259 223 202 194 217 212 206 216 217 211 203 202 204 194 193 202 204 194 189 193 193 185 180 176 173 173 170 164 156 146 136 132 132 130 124 118 112 99 93 94 100 102 98 108 118 114 109 106 94 82 80 83 78 63 54 54 57 66 74
161 75 76 113 117 124 126 151 193 145 120 233 216 135 127 130 130 124 97 79 160 197 357 48 104 135 288 261 226 182 187 222 225 218 220 212 208 205 202 201 193 192 194 196 196 197 200 198 192 187 183 180 177 176 176 175 170 160 151 154 156 145 136 128 110 94 80 79 85 91 103 116 115 109 101 79 59 62 72 71 58 54 60 63 68 69
155 117 143 142 119 155 198 195 172 139 108 258 130 114 117 119 120 108 87 85 118 84 357 301 83 79 269 278 302 163 189 228 228 220 219 209 205 201 199 202 197 195 195 194 196 199 202 202 197 192 187 184 182 184 188 188 187 182 173 176 183 175 167 158 140 112 77 68 71 82 92 106 113 105 82 52 41 45 51 51 46 49 61 64 64 59
27 168 168 145 141 191 219 171 155 127 96 123 102 92 86 83 87 76 88 96 47 52 273 248 137 91 278 279 19 114 204 229 224 220 216 206 200 195 197 201 196 195 196 199 201 201 203 204 201 196 192 189 187 192 199 200 201 198 194 195 197 195 198 196 190 193 114 72 67 69 69 78 95 85 56 46 45 44 43 43 41 44 55 60 58 48
342 27 140 126 162 182 98 72 102 107 118 123 96 87 80 51 41 44 64 83 58 12 277 243 156 120 302 278 198 177 216 218 208 208 210 204 199 192 194 196 192 193 196 198 201 203 206 207 205 201 199 195 192 198 207 210 211 211 207 206 209 209 211 215 214 213 202 101 69 65 62 61 69 67 57 54 49 43 40 39 42 46 51 48 38 26
9 47 62 308 135 123 94 69 45 82 109 105 91 99 86 19 9 18 356 30 71 267 279 258 142 115 241 266 229 225 253 230 193 196 199 198 197 192 192 192 190 191 193 192 192 196 200 202 205 205 205 202 197 202 213 216 217 218 214 213 219 222 220 226 230 225 224 220 93 68 69 64 63 66 61 50 41 35 30 27 27 30 32 25 17 10
18 37 285 353 76 108 102 83 40 27 52 84 105 101 77 31 9 7 329 353 153 242 273 185 141 123 240 251 251 246 256 242 205 199 194 191 190 187 188 189 188 190 189 189 187 187 191 194 199 204 206 205 203 206 214 218 220 221 220 218 223 231 229 233 239 236 237 241 251 276 62 60 54 52 38 19 14 14 11 8 4 0 356 352 353 355
344 322 339 101 92 138 111 113 133 172 148 138 134 122 111 98 53 342 283 312 282 265 298 191 175 269 282 261 246 240 247 240 216 200 190 188 185 183 184 182 183 187 187 188 186 184 190 193 198 204 205 204 206 209 214 218 221 222 224 224 228 236 234 234 241 242 244 246 253 265 268 288 336 349 345 340 342 341 340 343 346 344 340 338 341 343
110 310 261 161 192 171 133 147 160 153 145 157 134 119 136 148 136 243 244 208 243 271 325 332 214 204 233 252 242 243 266 255 204 177 171 180 179 172 170 171 177 185 187 187 186 188 193 193 197 204 204 203 207 210 213 218 222 224 227 229 234 242 241 240 242 243 248 251 254 261 265 269 279 296 314 321 323 326 328 327 327 332 334 331 332 334
109 254 250 262 246 159 169 179 128 107 102 164 113 99 192 189 140 92 194 174 182 184 329 306 235 213 223 264 297 322 338 33 136 140 143 156 153 147 160 174 180 185 185 185 186 190 194 193 197 203 205 205 207 210 214 218 222 226 230 233 239 248 250 248 246 246 251 254 256 260 265 268 271 277 289 301 312 318 320 317 317 323 324 320 323 330
89 273 274 338 31 146 177 160 122 113 134 139 127 186 238 173 118 105 174 70 76 108 286 279 261 295 312 301 325 14 38 62 103 133 147 154 151 155 174 182 182 184 184 187 189 188 189 191 197 203 206 207 209 212 216 220 223 227 233 237 242 251 254 252 252 251 253 256 259 262 264 266 268 272 277 285 300 308 310 311 312 310 309 314 324 333
139 267 299 44 79 336 168 125 74 61 123 121 191 215 206 124 92 105 122 5 40 153 285 305 267 295 340 306 319 13 51 82 126 143 146 152 158 170 184 185 185 187 185 186 186 184 187 189 196 203 208 210 212 216 220 223 226 229 235 240 245 251 256 257 257 257 258 259 262 265 266 266 268 272 276 279 286 296 302 304 305 307 312 322 333 340
118 160 302 342 127 326 14 92 53 341 78 124 177 184 116 129 252 59 104 9 40 315 295 307 298 272 205 231 272 245 191 182 167 157 154 166 176 182 187 188 189 184 178 182 181 181 186 191 198 203 209 213 215 220 225 227 229 232 237 241 245 251 257 261 263 262 262 262 263 267 269 268 269 271 275 278 281 286 292 297 305 316 326 334 340 349
89 119 275 305 189 325 22 84 177 273 326 64 107 61 54 134 164 154 133 166 172 298 279 313 330 279 232 220 194 206 208 182 171 177 180 185 187 187 185 184 186 182 181 184 183 185 189 194 200 203 208 214 217 221 226 229 231 235 239 242 244 248 254 260 263 265 267 267 267 269 270 269 269 271 274 278 281 281 283 292 308 322 328 333 352 37
58 92 213 304 333 55 103 209 187 189 207 96 106 310 328 65 131 167 27 78 134 150 186 294 321 271 253 210 184 209 210 185 181 183 189 194 192 189 186 182 182 183 188 188 185 189 192 196 202 205 210 215 218 222 226 230 233 237 241 242 243 246 250 257 262 266 270 273 273 271 270 271 271 273 278 278 278 279 282 294 312 318 310 337 105 109
109 110 155 286 333 182 229 240 184 175 177 157 169 204 183 139 126 120 323 316 92 121 168 167 269 271 261 205 208 225 209 198 192 180 184 197 192 188 187 185 183 183 187 190 188 188 191 197 203 206 211 216 219 222 226 231 235 239 242 242 243 245 248 255 261 266 272 276 276 273 272 274 275 278 279 277 274 277 287 301 305 284 228 149 121 111
141 105 108 190 229 222 242 272 166 167 150 132 161 188 149 131 120 129 232 267 136 89 135 123 236 271 266 236 237 243 227 216 203 181 183 194 191 186 186 185 184 186 190 188 186 188 193 199 202 205 211 216 220 224 227 232 235 238 241 242 244 247 248 253 259 265 271 275 275 273 273 276 277 276 273 272 272 276 289 290 241 205 183 142 123 110
98 79 82 291 297 297 308 350 24 67 95 109 176 125 132 151 139 148 181 182 143 164 153 94 285 269 275 280 259 247 226 200 199 188 179 186 188 179 180 182 182 186 187 182 186 192 195 198 200 204 210 216 222 225 228 232 235 238 241 242 243 247 249 252 257 263 267 271 272 272 272 275 278 276 271 270 270 267 257 214 182 170 154 135 121 107
190 114 103 75 1 344 345 356 354 358 61 148 231 170 138 115 101 115 141 91 69 217 156 139 250 256 270 308 342 331 157 164 200 189 170 180 185 177 180 183 181 179 175 178 185 187 189 194 197 204 211 216 222 226 229 233 235 238 240 242 244 247 251 254 258 263 265 266 268 266 258 264 274 278 274 267 251 221 197 179 167 156 144 131 119 107
152 148 121 120 131 179 246 271 269 265 236 207 189 146 119 105 117 146 125 64 301 238 147 157 226 262 288 322 9 22 113 162 205 173 165 182 180 178 182 179 178 178 179 184 185 183 188 195 200 206 212 217 222 226 230 233 236 238 242 245 247 250 253 255 258 263 265 264 265 256 236 246 264 271 264 240 203 185 177 168 160 148 136 127 119 110
105 116 120 139 164 184 194 217 226 174 143 241 268 146 126 121 126 119 88 97 208 182 189 221 211 263 300 297 316 310 207 204 212 171 170 185 180 182 186 182 182 184 186 187 183 183 187 195 205 210 214 219 224 227 230 234 236 239 242 246 249 252 255 256 258 261 262 260 254 237 224 236 253 251 225 196 179 171 163 153 146 137 129 123 116 107
104 102 157 147 186 207 192 203 253 93 148 194 203 197 171 133 115 116 150 216 165 117 284 260 197 201 270 259 245 245 226 218 218 197 188 189 183 180 173 169 177 181 183 182 183 189 193 200 209 213 216 221 225 229 232 235 238 241 244 248 251 253 255 257 256 256 257 250 234 221 220 226 223 202 184 174 165 157 150 143 138 132 127 122 112 102
114 138 190 156 253 244 172 188 313 91 130 168 178 207 200 151 149 173 215 203 151 156 254 248 180 203 248 247 233 226 211 206 208 194 178 164 161 161 155 163 177 180 182 189 197 200 202 207 210 211 217 222 225 229 232 234 238 242 244 248 252 255 257 257 254 250 244 231 216 207 204 194 182 173 168 162 155 149 144 139 134 131 127 120 110 101
119 168 211 156 331 355 45 322 226 126 72 351 224 227 204 174 178 198 235 208 176 206 241 205 197 238 246 232 232 229 198 186 168 142 151 157 161 165 167 175 184 186 191 199 205 205 206 211 212 213 217 222 225 229 231 234 238 241 244 248 251 254 256 252 244 235 222 206 192 184 178 172 167 162 158 153 147 143 138 135 132 130 125 117 109 101
88 163 236 96 32 338 353 6 22 78 98 276 305 318 348 159 189 217 224 189 193 250 245 149 194 265 263 237 241 242 150 140 136 156 178 182 173 169 177 188 192 194 202 208 207 207 211 214 213 213 217 223 227 229 231 235 239 242 247 251 252 252 250 241 226 211 198 184 173 168 165 161 157 154 150 146 142 138 136 135 134 131 124 117 110 103
74 102 350 67 60 303 327 7 359 33 81 37 310 301 234 176 201 226 213 189 184 184 166 107 243 268 266 239 215 150 146 150 168 183 185 191 183 176 185 198 202 204 208 212 210 208 212 213 209 211 216 223 227 229 232 235 238 243 248 253 253 245 232 217 201 189 178 168 162 160 158 155 153 149 145 142 139 138 139 138 135 130 124 119 112 104
100 118 126 85 96 272 303 352 356 38 52 348 286 239 203 206 226 246 258 238 203 153 135 187 230 244 250 204 145 158 178 181 199 197 182 186 191 190 197 202 205 211 212 212 212 210 210 212 210 212 216 221 225 228 233 235 238 243 249 251 242 220 201 189 181 173 163 158 157 155 153 152 150 145 142 142 142 142 142 139 135 130 127 122 116 108
82 98 129 134 120 266 293 335 31 42 15 262 238 184 182 204 208 217 242 242 221 190 177 226 244 250 230 193 181 188 196 201 207 204 195 182 180 191 208 213 213 217 218 219 218 216 215 215 215 217 220 224 226 230 234 235 237 241 241 228 205 190 180 172 166 161 155 153 153 152 151 150 147 143 142 144 144 144 143 140 136 132 129 125 120 112
82 80 114 100 85 250 309 21 44 334 242 242 257 228 205 204 186 198 247 258 227 227 248 260 260 247 217 210 212 203 212 240 253 207 206 196 183 187 199 212 216 217 220 224 224 225 222 216 214 217 221 224 225 227 227 225 222 216 201 186 178 172 168 163 157 154 153 152 151 150 149 148 146 144 145 146 146 146 144 141 138 136 133 130 124 116
124 114 113 80 68 273 27 64 124 245 263 282 307 280 190 169 140 169 286 285 235 207 213 228 246 244 216 226 270 271 215 308 358 267 217 206 198 194 198 210 214 214 217 218 218 223 225 220 216 216 217 217 214 210 206 200 193 181 170 167 166 162 161 158 154 152 152 151 150 150 150 149 147 146 146 147 148 147 146 144 143 142 140 136 129 120
126 131 110 81 84 149 112 139 248 294 315 315 311 230 172 157 160 159 230 279 251 202 191 205 224 228 202 201 281 91 103 64 5 300 252 215 202 200 207 216 215 216 225 226 226 233 236 230 225 219 213 204 195 191 185 178 173 165 157 157 158 157 157 156 153 153 152 151 150 151 152 152 150 148 148 150 150 148 148 149 150 150 149 144 135 127
87 128 152 145 230 100 98 13 324 350 312 275 262 268 247 181 179 154 121 294 276 231 198 196 194 188 169 131 124 127 92 71 324 273 254 223 207 195 194 201 196 201 209 205 203 213 218 217 213 205 195 185 178 176 172 167 163 158 152 152 155 155 155 155 154 154 153 152 152 153 154 155 153 150 151 152 150 149 151 154 156 157 157 150 139 132
55 57 106 108 65 101 109 117 229 220 250 248 250 275 287 181 164 106 57 316 277 239 197 186 186 187 174 152 150 137 101 111 240 255 237 208 202 186 169 158 153 167 178 180 178 173 172 179 180 176 173 168 163 162 162 160 159 155 151 152 156 156 157 157 156 156 155 153 154 155 155 155 154 153 152 152 151 150 153 157 159 160 158 152 142 135
48 32 54 96 149 156 123 142 229 231 246 247 245 258 253 161 107 70 27 277 262 239 193 182 188 192 174 153 147 142 149 189 229 249 210 171 165 164 161 155 149 147 150 159 164 158 156 161 161 159 159 157 155 156 157 158 158 154 153 156 158 160 160 159 158 157 155 154 155 156 156 156 155 155 154 153 152 152 155 158 160 160 158 152 144 138
39 32 61 134 152 139 134 188 273 264 249 246 247 227 195 141 71 75 214 238 247 245 209 189 187 182 162 153 160 178 197 207 213 197 159 145 136 138 146 148 149 150 151 153 153 151 152 157 158 157 156 155 155 156 159 160 158 155 157 160 161 162 162 160 158 156 155 155 156 156 157 158 158 157 156 154 153 154 156 158 159 159 157 152 147 140
105 48 79 129 123 128 152 179 305 288 251 200 185 205 188 143 135 212 220 226 232 236 215 192 187 179 167 171 184 197 218 65 99 134 148 148 144 142 142 141 138 140 145 146 148 151 151 152 153 152 153 156 159 161 164 165 161 158 160 163 163 163 161 159 157 157 157 157 158 159 160 160 160 159 157 156 155 154 155 157 159 159 156 152 147 140
174 171 211 191 159 126 67 56 48 282 249 167 126 116 183 186 205 218 228 237 219 212 192 187 192 183 179 192 202 201 113 90 120 142 147 151 146 141 147 150 145 145 147 148 153 157 153 151 152 153 156 160 163 166 169 168 164 161 163 164 163 162 160 158 159 159 159 160 162 163 163 163 163 162 159 158 158 154 154 157 160 159 157 154 148 143
186 177 196 227 185 130 100 191 204 218 233 207 161 168 210 214 196 180 153 317 243 206 178 191 204 195 192 200 200 188 162 145 148 150 149 155 151 144 151 158 155 153 154 156 160 160 156 154 155 156 159 164 167 170 174 174 168 163 163 164 162 161 160 161 162 162 163 164 165 165 165 165 165 164 161 159 159 156 154 157 159 157 158 156 151 146
226 197 167 168 186 170 179 216 227 229 235 238 227 212 225 254 228 168 158 229 241 204 181 188 204 202 197 189 172 174 196 190 172 169 168 168 166 158 157 162 161 159 160 163 163 162 160 160 159 159 161 167 172 174 178 180 174 167 165 165 164 163 163 163 165 166 166 168 168 167 167 167 166 165 163 162 163 160 156 158 160 158 158 158 152 148
260 192 157 161 244 243 235 239 253 268 264 257 250 236 234 263 257 182 179 222 228 201 187 191 197 193 186 173 169 189 210 190 175 182 181 170 163 155 153 159 164 164 164 166 166 166 165 162 161 162 164 170 178 180 181 185 184 175 169 167 167 167 167 166 167 169 169 170 170 170 170 168 166 165 166 165 167 165 161 162 163 160 158 157 152 148
293 151 154 326 14 10 278 271 256 252 257 261 270 270 257 246 229 198 205 234 229 198 202 212 204 179 171 175 186 199 201 179 168 173 176 170 170 167 162 165 170 171 171 171 172 172 168 163 162 165 168 173 182 185 185 187 187 181 174 171 170 170 170 169 170 171 172 172 172 172 172 171 167 167 168 168 169 167 165 167 168 164 161 160 156 152
310 126 162 243 108 170 250 264 265 263 262 259 254 259 258 246 227 213 221 243 257 232 219 214 183 160 168 189 196 187 176 176 176 174 174 178 180 177 172 173 174 174 175 176 176 176 173 170 169 171 174 178 183 187 188 186 185 181 176 173 173 172 172 173 174 175 175 175 175 175 175 173 171 170 170 170 171 170 169 171 173 171 167 164 160 156
119 142 200 165 2 303 288 296 315 325 313 296 266 245 244 238 225 221 230 244 260 257 222 203 197 185 185 193 187 167 167 185 186 176 175 179 180 180 182 180 178 177 178 181 183 183 181 179 178 179 181 183 184 185 187 186 184 182 178 176 175 175 175 176 177 177 177 177 177 176 176 176 175 173 171 171 173 174 174 176 177 175 169 165 161 155
52 262 211 101 25 313 283 275 291 333 307 293 282 269 258 233 210 218 229 228 233 229 202 188 212 233 214 202 182 166 176 193 189 179 178 181 184 185 184 181 179 182 185 186 187 188 187 187 186 185 185 186 186 185 186 186 184 183 181 179 178 178 178 178 178 178 178 179 178 178 178 178 178 177 176 175 175 174 175 176 179 180 178 173 168 162
195 214 183 150 171 238 247 242 213 168 249 263 265 277 283 235 189 212 227 222 227 225 192 174 183 204 218 217 197 185 187 186 178 177 181 192 194 189 183 180 182 186 190 190 190 192 194 193 190 188 187 188 188 186 186 187 185 184 183 182 181 182 183 182 180 179 180 182 182 182 182 181 180 180 181 181 180 178 177 176 179 184 186 182 177 173